Home > Weather > Hürth > Past weeks

Flag for Germany Past Weather in Hürth, North Rhine-Westphalia, Germany — Yesterday and Last 2 Weeks

Now
63 °F

Mild.


Feels Like: 63 °F
Forecast: 59 / 73 °F
Wind: 6 mph from West

Location: Noervenich

Current Time: Jul 29, 2016 at 4:14:44 AM

Latest Report: Jul 29, 2016 at 3:20 AM


Visibility: 6 mi

Pressure: 29.95 "Hg

Humidity: 83%

Dew Point: 57 °F

Location of HürthLocation

Past Weather in Hürth — Graph

°F

Hürth Temperature Yesterday

Maximum temperature yesterday: 73 °F (at 5:20 PM)
Minimum temperature yesterday: 63 °F (at 8:20 AM)
Average temperature yesterday: 67 °F

High & Low Weather Summary for the Past Weeks

 TemperatureHumidityPressure
High95 °F (Jul 20, 3:20 PM)100% (Jul 24, 3:20 AM)30.33 "Hg (Jul 24, 3:20 AM)
Low50 °F (Jul 14, 3:20 AM)26% (Jul 20, 3:20 PM)29.86 "Hg (Jul 20, 4:20 PM)
Average70 °F71%30.10 "Hg
* Reported Jul 14 2:20 AM — Jul 29 2:20 AM, Hürth, Weather by CustomWeather, © 2016

Note: Actual official high and low records may vary slightly from our data, if they occured in-between our weather recording intervals... More about our weather records

Advertising

Hürth Weather History for the Previous 24 Hours

Scroll right to see more
 ConditionsComfort  
Time TempWeatherWind HumidityBarometerVisibility
2:20 AM
Fri, Jul 29
64 °FMild.7 mph73%29.95 "Hg6 mi
1:20 AM63 °FMild.6 mph83%29.98 "Hg5 mi
12:20 AM64 °FMild.6 mph78%29.95 "Hg6 mi
11:20 PM
Thu, Jul 28
64 °FMild.6 mph78%29.95 "Hg6 mi
10:20 PM64 °FMild.5 mph78%29.95 "Hg6 mi
9:20 PM68 °FScattered clouds.3 mph69%29.95 "HgN/A
8:20 PM72 °FBroken clouds.5 mph65%29.95 "HgN/A
7:20 PM73 °FBroken clouds.10 mph57%29.95 "HgN/A
6:20 PM73 °FBroken clouds.12 mph61%29.95 "HgN/A
5:20 PM73 °FBroken clouds.12 mph65%29.95 "HgN/A
4:20 PM68 °FBroken clouds.8 mph83%29.98 "HgN/A
3:20 PM68 °FLight rain. Broken clouds.5 mph88%29.98 "Hg5 mi
2:20 PM66 °FBroken clouds.2 mph94%29.98 "Hg5 mi
1:20 PM66 °FLight rain. Broken clouds.3 mph88%30.01 "Hg4 mi
12:20 PM66 °FLight rain. Broken clouds.3 mph88%30.01 "Hg4 mi
11:20 AM66 °FLight rain. Broken clouds.3 mph88%30.01 "Hg4 mi
10:50 AM64 °FLight rain. Broken clouds.2 mph94%30.01 "Hg4 mi
10:20 AM64 °FRain. Fog.3 mph88%30.01 "Hg2 mi
9:20 AM63 °FLight rain. Mostly cloudy.2 mph94%30.01 "Hg6 mi
8:20 AM63 °FRain. Mostly cloudy.1 mph94%30.01 "Hg4 mi
7:20 AM64 °FLight rain. Partly sunny.3 mph83%30.01 "HgN/A
6:20 AM64 °FPassing clouds.6 mph78%30.01 "HgN/A
5:20 AM64 °FPassing clouds.3 mph78%30.01 "HgN/A
4:20 AM64 °FPassing clouds.3 mph78%30.01 "HgN/A
Weather by CustomWeather, © 2016

See weather overviewHow to use our weather pages